Location: Unspecified
(0.0000°N, 0.0000°E)
Time: 04:17:49
(UTC+00:00)

Courier 1B Rocket - Visible Passes

Search period start: 04 March 2015 00:00
Search period end: 14 March 2015 00:00
Orbit: 921 x 1202 km, 28.3° (Epoch: 03 March)

Date Brightness Start Highest point End Pass type
(mag) Time Alt. Az. Time Alt. Az. Time Alt. Az.
04 Mar 7.0 03:21:26 22° NE 03:21:26 22° NE 03:25:14 10° ENE visible
04 Mar 5.2 05:07:50 18° NW 05:13:33 79° NNE 05:20:22 10° ESE visible
04 Mar 6.4 18:29:01 10° W 18:35:27 38° NNW 18:42:15 10° NE visible
04 Mar 7.4 20:26:43 10° NW 20:30:10 13° NNW 20:31:32 13° N visible
05 Mar 5.7 04:10:58 47° N 04:12:23 54° NNE 04:19:13 10° ESE visible
05 Mar 7.2 19:23:45 10° WNW 19:28:33 18° NNW 19:33:19 10° NNE visible
06 Mar 6.9 03:14:06 27° ENE 03:14:06 27° ENE 03:17:44 10° E visible
06 Mar 5.2 05:00:30 25° WNW 05:04:58 69° SSW 05:11:50 10° SE visible
07 Mar 5.1 04:03:38 81° N 04:03:48 82° NNE 04:10:57 10° ESE visible
07 Mar 7.4 19:17:41 10° NW 19:20:25 12° NNW 19:22:59 10° N visible
08 Mar 7.0 03:06:45 26° E 03:06:45 26° E 03:09:45 10° ESE visible
08 Mar 5.7 04:53:09 29° W 04:56:23 45° SSW 05:03:02 10° SE visible
09 Mar 5.5 03:56:15 60° SSE 03:56:15 60° SSE 04:02:22 10° SE visible
09 Mar 6.7 05:43:54 10° WSW 05:49:11 20° SSW 05:54:04 10° SSE visible
10 Mar 7.3 02:59:18 21° ESE 02:59:18 21° ESE 03:01:25 10° ESE visible
10 Mar 6.2 04:45:42 26° WSW 04:47:51 30° SSW 04:53:57 10° SSE visible
11 Mar 6.2 03:48:44 36° S 03:48:44 36° S 03:53:31 10° SE visible
11 Mar 7.1 05:37:10 10° SW 05:40:55 14° SSW 05:44:18 10° S visible
12 Mar 7.6 02:51:44 15° SE 02:51:44 15° SE 02:52:47 10° SE visible
12 Mar 6.7 04:38:06 20° SW 04:39:26 21° SSW 04:44:37 10° SSE visible
13 Mar 6.9 03:41:03 23° S 03:41:03 23° S 03:44:24 10° SSE visible
